When you browse on this site, cookies collect data to enhance your experience and personalize the content and advertising you see.
Visit our Privacy Policy to learn more. By continuing to use the site, you agree to this use of cookies and data.
  • In Hungary
  • List of Countries
  • For 7 days
  • Water Temperature
  • Satellite Maps
  • Weather Map
  • News
  • Weather Widgets
  • user-avatar
    Login

    Hourly Weather Kiustendil

    Today, 18 November, Sunday

    Time Temperature Precipitation Wind Pressure Humidity
    00:00 -7°C° 0 mm 1 mps 626 mmHg 75%
    01:00 -7°C° 0 mm 1 mps 625 mmHg 75%
    02:00 -7°C° 0 mm 1 mps 625 mmHg 74%
    03:00 -7°C° 0 mm 1 mps 625 mmHg 74%
    04:00 -6°C° 0 mm 1 mps 625 mmHg 74%
    05:00 -6°C° 0 mm 1 mps 625 mmHg 74%
    06:00 -6°C° 0 mm 1 mps 624 mmHg 74%
    07:00 -6°C° 0 mm 1 mps 624 mmHg 74%
    08:00 -3°C° 0 mm 1 mps 625 mmHg 68%
    09:00 -2°C° 0 mm 1 mps 625 mmHg 63%
    10:00 0°C° 0 mm 1 mps 625 mmHg 57%
    11:00 0°C° 0.2 mm 1 mps 625 mmHg 58%
    12:00 +1°C° 0.2 mm 1 mps 624 mmHg 58%
    13:00 +1°C° 0.2 mm 1 mps 624 mmHg 59%
    14:00 0°C° 0.9 mm 1 mps 623 mmHg 66%
    15:00 -1°C° 0.9 mm 1 mps 622 mmHg 73%
    16:00 -4°C° 0.9 mm 2 mps 621 mmHg 80%
    17:00 -4°C° 0.8 mm 2 mps 621 mmHg 82%
    18:00 -4°C° 0.8 mm 2 mps 620 mmHg 84%
    19:00 -2°C° 0.8 mm 1 mps 620 mmHg 86%
    20:00 -3°C° 0.4 mm 1 mps 620 mmHg 86%
    21:00 -3°C° 0.4 mm 1 mps 619 mmHg 87%
    22:00 -3°C° 0.4 mm 1 mps 619 mmHg 87%
    23:00 -3°C° 0.2 mm 1 mps 619 mmHg 87%

    Tomorrow, 19 November, Monday

    Time Temperature Precipitation Wind Pressure Humidity
    00:00 -3°C° 0.2 mm 1 mps 618 mmHg 87%
    01:00 -3°C° 0.2 mm 1 mps 618 mmHg 88%
    02:00 -3°C° 0.1 mm 1 mps 618 mmHg 88%
    03:00 -4°C° 0.1 mm 1 mps 618 mmHg 88%
    04:00 -4°C° 0.1 mm 1 mps 617 mmHg 89%
    05:00 -4°C° 0 mm 1 mps 618 mmHg 89%
    06:00 -4°C° 0 mm 1 mps 618 mmHg 88%
    07:00 -4°C° 0 mm 1 mps 618 mmHg 88%
    08:00 -3°C° 0 mm 1 mps 619 mmHg 84%
    09:00 -1°C° 0 mm 1 mps 620 mmHg 79%
    10:00 0°C° 0 mm 1 mps 621 mmHg 75%
    11:00 +1°C° 0 mm 1 mps 621 mmHg 72%
    12:00 +2°C° 0 mm 1 mps 621 mmHg 69%
    13:00 +2°C° 0 mm 1 mps 621 mmHg 66%
    14:00 +1°C° 0 mm 1 mps 621 mmHg 70%
    15:00 0°C° 0 mm 1 mps 621 mmHg 74%
    16:00 -2°C° 0 mm 0 mps 621 mmHg 77%
    17:00 -1°C° 0 mm 1 mps 621 mmHg 79%
    18:00 -2°C° 0 mm 1 mps 621 mmHg 80%
    19:00 -3°C° 0 mm 1 mps 622 mmHg 81%
    20:00 -3°C° 0 mm 1 mps 622 mmHg 80%
    21:00 -3°C° 0 mm 1 mps 622 mmHg 79%
    22:00 -3°C° 0 mm 1 mps 622 mmHg 79%
    23:00 -2°C° 0 mm 1 mps 622 mmHg 77%

    Day after tomorrow, 20 November, Tuesday

    Time Temperature Precipitation Wind Pressure Humidity
    00:00 -2°C° 0 mm 1 mps 623 mmHg 76%
    01:00 -2°C° 0 mm 1 mps 623 mmHg 75%
    02:00 -2°C° 0.6 mm 1 mps 623 mmHg 77%
    03:00 -3°C° 0.6 mm 2 mps 623 mmHg 79%
    04:00 -3°C° 0.6 mm 2 mps 623 mmHg 81%
    05:00 -3°C° 0.1 mm 2 mps 623 mmHg 83%
    06:00 -3°C° 0.1 mm 2 mps 623 mmHg 85%
    07:00 -3°C° 0.1 mm 2 mps 623 mmHg 86%
    08:00 -1°C° 0 mm 3 mps 623 mmHg 84%
    09:00 0°C° 0 mm 3 mps 624 mmHg 81%
    10:00 +1°C° 0 mm 4 mps 624 mmHg 78%
    11:00 +1°C° 0.2 mm 4 mps 624 mmHg 78%
    12:00 +3°C° 0.2 mm 4 mps 624 mmHg 79%
    13:00 +3°C° 0.2 mm 4 mps 624 mmHg 79%
    14:00 +1°C° 0.1 mm 4 mps 623 mmHg 82%
    15:00 +2°C° 0.1 mm 3 mps 623 mmHg 85%
    16:00 +1°C° 0.1 mm 3 mps 623 mmHg 88%
    17:00 +1°C° 0 mm 3 mps 622 mmHg 89%
    18:00 +1°C° 0 mm 3 mps 622 mmHg 90%
    19:00 +1°C° 0 mm 2 mps 622 mmHg 92%
    20:00 +2°C° 0.2 mm 2 mps 622 mmHg 92%
    21:00 +2°C° 0.2 mm 2 mps 622 mmHg 92%
    22:00 +2°C° 0.2 mm 2 mps 622 mmHg 92%
    23:00 +2°C° 0.2 mm 2 mps 621 mmHg 92%

    21 November, Wednesday

    Time Temperature Precipitation Wind Pressure Humidity
    00:00 +2°C° 0.2 mm 2 mps 620 mmHg 93%
    01:00 +2°C° 0.2 mm 2 mps 620 mmHg 93%
    02:00 +2°C° 0.9 mm 2 mps 619 mmHg 93%
    03:00 +2°C° 0.9 mm 2 mps 619 mmHg 93%
    04:00 +3°C° 0.9 mm 1 mps 619 mmHg 93%
    05:00 +3°C° 1.1 mm 1 mps 619 mmHg 93%
    06:00 +3°C° 1.1 mm 1 mps 619 mmHg 93%
    07:00 +2°C° 1.1 mm 0 mps 618 mmHg 93%
    08:00 +3°C° 0.6 mm 1 mps 619 mmHg 91%
    09:00 +4°C° 0.6 mm 1 mps 619 mmHg 90%
    10:00 +4°C° 0.6 mm 1 mps 620 mmHg 88%
    11:00 +4°C° 0.8 mm 1 mps 620 mmHg 88%
    12:00 +4°C° 0.8 mm 1 mps 620 mmHg 87%
    13:00 +3°C° 0.8 mm 2 mps 620 mmHg 87%
    14:00 +2°C° 0.4 mm 2 mps 620 mmHg 88%
    15:00 +2°C° 0.4 mm 2 mps 621 mmHg 89%
    16:00 +2°C° 0.4 mm 2 mps 621 mmHg 89%
    17:00 +1°C° 0.1 mm 2 mps 621 mmHg 89%
    18:00 +1°C° 0.1 mm 2 mps 622 mmHg 90%
    19:00 +1°C° 0.1 mm 2 mps 622 mmHg 90%
    20:00 +1°C° 0 mm 2 mps 622 mmHg 90%
    21:00 -1°C° 0 mm 2 mps 623 mmHg 90%
    22:00 -1°C° 0 mm 2 mps 623 mmHg 91%
    23:00 -1°C° 0 mm 2 mps 623 mmHg 90%

    22 November, Thursday

    Time Temperature Precipitation Wind Pressure Humidity
    00:00 -2°C° 0 mm 2 mps 623 mmHg 90%
    01:00 0°C° 0 mm 1 mps 623 mmHg 89%
    02:00 0°C° 0 mm 1 mps 623 mmHg 88%
    03:00 -1°C° 0 mm 1 mps 623 mmHg 87%
    04:00 -1°C° 0 mm 1 mps 623 mmHg 86%
    05:00 -1°C° 0 mm 1 mps 623 mmHg 84%
    06:00 -1°C° 0 mm 1 mps 623 mmHg 82%
    07:00 -1°C° 0 mm 1 mps 624 mmHg 81%
    08:00 +1°C° 0 mm 1 mps 625 mmHg 72%
    09:00 +3°C° 0 mm 1 mps 625 mmHg 64%
    10:00 +5°C° 0 mm 1 mps 626 mmHg 56%
    11:00 +5°C° 0 mm 1 mps 626 mmHg 53%
    12:00 +6°C° 0 mm 1 mps 626 mmHg 50%
    13:00 +7°C° 0 mm 1 mps 627 mmHg 47%
    14:00 +6°C° 0 mm 1 mps 626 mmHg 52%
    15:00 +4°C° 0 mm 1 mps 626 mmHg 57%
    16:00 +3°C° 0 mm 1 mps 626 mmHg 63%
    17:00 +3°C° 0 mm 1 mps 626 mmHg 65%
    18:00 +2°C° 0 mm 1 mps 626 mmHg 68%
    19:00 +2°C° 0 mm 1 mps 626 mmHg 70%
    20:00 +1°C° 0 mm 1 mps 626 mmHg 72%
    21:00 +1°C° 0 mm 1 mps 627 mmHg 73%
    22:00 +1°C° 0 mm 1 mps 627 mmHg 74%
    23:00 0°C° 0 mm 1 mps 627 mmHg 75%

    23 November, Friday

    Time Temperature Precipitation Wind Pressure Humidity
    00:00 0°C° 0 mm 1 mps 627 mmHg 76%
    01:00 0°C° 0 mm 1 mps 627 mmHg 77%
    02:00 0°C° 0 mm 1 mps 627 mmHg 77%
    03:00 -1°C° 0 mm 1 mps 627 mmHg 78%
    04:00 -1°C° 0 mm 1 mps 627 mmHg 79%
    05:00 -1°C° 0 mm 1 mps 627 mmHg 79%
    06:00 -1°C° 0 mm 1 mps 627 mmHg 79%
    07:00 -1°C° 0 mm 1 mps 628 mmHg 79%
    08:00 +1°C° 0 mm 1 mps 628 mmHg 72%
    09:00 +3°C° 0 mm 1 mps 629 mmHg 65%
    10:00 +5°C° 0 mm 1 mps 630 mmHg 58%
    11:00 +5°C° 0 mm 1 mps 630 mmHg 56%
    12:00 +6°C° 0 mm 1 mps 630 mmHg 55%
    13:00 +6°C° 0 mm 1 mps 630 mmHg 53%
    14:00 +5°C° 0 mm 1 mps 630 mmHg 57%
    15:00 +4°C° 0 mm 1 mps 629 mmHg 62%
    16:00 +2°C° 0 mm 0 mps 629 mmHg 67%
    17:00 +2°C° 0 mm 1 mps 629 mmHg 70%
    18:00 +1°C° 0 mm 1 mps 629 mmHg 74%
    19:00 +1°C° 0 mm 1 mps 629 mmHg 77%
    20:00 0°C° 0 mm 1 mps 629 mmHg 79%
    21:00 0°C° 0 mm 1 mps 629 mmHg 80%
    22:00 0°C° 0 mm 1 mps 629 mmHg 82%
    23:00 0°C° 0 mm 1 mps 628 mmHg 83%
    Show more